Time,TemperatureF,DewpointF,PressureIn,WindDirection,WindDirectionDegrees,WindSpeedMPH,WindSpeedGustMPH,Humidity,HourlyPrecipIn,Conditions,Clouds,dailyrainin,SoftwareType,DateUTC
2013-06-30 00:02:00,75.1,39.8,29.78,East,86,1.0,1.0,28,0.00,,,0.00,Wunderground v.1.15,2013-06-30 06:02:00,
2013-06-30 00:04:00,74.9,38.7,29.78,East,86,1.0,1.0,27,0.00,,,0.00,Wunderground v.1.15,2013-06-30 06:04:00,
2013-06-30 00:06:00,74.7,38.5,29.78,East,86,1.0,1.0,27,0.00,,,0.00,Wunderground v.1.15,2013-06-30 06:06:00,
2013-06-30 00:08:00,74.7,38.5,29.78,East,86,0.0,1.0,27,0.00,,,0.00,Wunderground v.1.15,2013-06-30 06:08:00,
2013-06-30 00:10:00,74.6,39.3,29.78,East,86,0.0,0.0,28,0.00,,,0.00,Wunderground v.1.15,2013-06-30 06:10:00,
2013-06-30 00:12:00,74.4,40.1,29.78,East,86,0.0,0.0,29,0.00,,,0.00,Wunderground v.1.15,2013-06-30 06:12:00,
2013-06-30 00:14:00,74.2,39.9,29.78,East,86,0.0,0.0,29,0.00,,,0.00,Wunderground v.1.15,2013-06-30 06:14:00,
2013-06-30 00:16:00,74.0,39.7,29.78,East,86,0.0,0.0,29,0.00,,,0.00,Wunderground v.1.15,2013-06-30 06:16:00,
2013-06-30 00:20:00,73.5,40.2,29.78,East,86,0.0,0.0,30,0.00,,,0.00,Wunderground v.1.15,2013-06-30 06:20:00,
2013-06-30 00:22:00,73.3,40.8,29.78,East,86,0.0,0.0,31,0.00,,,0.00,Wunderground v.1.15,2013-06-30 06:22:00,
2013-06-30 00:24:00,73.0,41.4,29.78,East,86,0.0,0.0,32,0.00,,,0.00,Wunderground v.1.15,2013-06-30 06:24:00,
2013-06-30 00:28:00,72.3,40.8,29.78,East,86,0.0,0.0,32,0.00,,,0.00,Wunderground v.1.15,2013-06-30 06:28:00,
2013-06-30 00:31:00,71.8,41.1,29.78,East,86,0.0,0.0,33,0.00,,,0.00,Wunderground v.1.15,2013-06-30 06:31:00,
2013-06-30 00:34:00,71.5,41.6,29.78,East,86,0.0,0.0,34,0.00,,,0.00,Wunderground v.1.15,2013-06-30 06:34:00,
2013-06-30 00:36:00,71.1,42.0,29.78,East,86,0.0,0.0,35,0.00,,,0.00,Wunderground v.1.15,2013-06-30 06:36:00,
2013-06-30 00:40:00,70.8,41.8,29.78,East,86,0.0,0.0,35,0.00,,,0.00,Wunderground v.1.15,2013-06-30 06:40:00,
2013-06-30 00:42:00,70.6,41.6,29.78,East,86,0.0,0.0,35,0.00,,,0.00,Wunderground v.1.15,2013-06-30 06:42:00,
2013-06-30 00:46:00,70.3,42.1,29.80,East,86,0.0,0.0,36,0.00,,,0.00,Wunderground v.1.15,2013-06-30 06:46:00,
2013-06-30 00:50:00,70.1,42.6,29.80,East,86,0.0,0.0,37,0.00,,,0.00,Wunderground v.1.15,2013-06-30 06:50:00,
2013-06-30 00:52:00,69.9,41.7,29.80,East,86,0.0,0.0,36,0.00,,,0.00,Wunderground v.1.15,2013-06-30 06:52:00,
2013-06-30 00:54:00,69.8,41.6,29.80,East,86,0.0,0.0,36,0.00,,,0.00,Wunderground v.1.15,2013-06-30 06:54:00,
2013-06-30 00:58:00,69.6,42.2,29.80,East,86,0.0,0.0,37,0.00,,,0.00,Wunderground v.1.15,2013-06-30 06:58:00,
2013-06-30 01:00:00,69.4,42.7,29.80,East,86,0.0,0.0,38,0.00,,,0.00,Wunderground v.1.15,2013-06-30 07:00:00,
2013-06-30 01:04:00,69.1,42.4,29.81,East,86,0.0,0.0,38,0.00,,,0.00,Wunderground v.1.15,2013-06-30 07:04:00,
2013-06-30 01:08:00,68.9,42.2,29.81,East,86,0.0,0.0,38,0.00,,,0.00,Wunderground v.1.15,2013-06-30 07:08:00,
2013-06-30 01:10:00,68.8,43.5,29.81,East,86,0.0,0.0,40,0.00,,,0.00,Wunderground v.1.15,2013-06-30 07:10:00,
2013-06-30 01:14:00,68.6,42.6,29.81,East,86,0.0,0.0,39,0.00,,,0.00,Wunderground v.1.15,2013-06-30 07:14:00,
2013-06-30 01:16:00,68.6,42.6,29.81,East,86,0.0,0.0,39,0.00,,,0.00,Wunderground v.1.15,2013-06-30 07:16:00,
2013-06-30 01:20:00,68.4,41.1,29.81,East,86,0.0,0.0,37,0.00,,,0.00,Wunderground v.1.15,2013-06-30 07:20:00,
2013-06-30 01:22:00,68.4,41.1,29.81,East,86,0.0,0.0,37,0.00,,,0.00,Wunderground v.1.15,2013-06-30 07:22:00,
2013-06-30 01:26:00,68.3,41.7,29.81,East,86,0.0,0.0,38,0.00,,,0.00,Wunderground v.1.15,2013-06-30 07:26:00,
2013-06-30 01:28:00,68.3,42.4,29.81,East,86,0.0,0.0,39,0.00,,,0.00,Wunderground v.1.15,2013-06-30 07:28:00,
2013-06-30 01:31:00,68.1,42.2,29.82,East,86,0.0,0.0,39,0.00,,,0.00,Wunderground v.1.15,2013-06-30 07:31:00,
2013-06-30 01:34:00,67.8,41.9,29.82,East,86,0.0,0.0,39,0.00,,,0.00,Wunderground v.1.15,2013-06-30 07:34:00,
2013-06-30 01:36:00,67.8,41.9,29.82,East,86,0.0,0.0,39,0.00,,,0.00,Wunderground v.1.15,2013-06-30 07:36:00,
2013-06-30 01:38:00,67.6,42.4,29.82,East,86,0.0,0.0,40,0.00,,,0.00,Wunderground v.1.15,2013-06-30 07:38:00,
2013-06-30 01:44:00,67.4,41.6,29.82,East,86,0.0,0.0,39,0.00,,,0.00,Wunderground v.1.15,2013-06-30 07:44:00,
2013-06-30 01:46:00,67.3,41.5,29.83,East,86,0.0,0.0,39,0.00,,,0.00,Wunderground v.1.15,2013-06-30 07:46:00,
2013-06-30 01:52:00,67.3,42.1,29.83,East,86,0.0,0.0,40,0.00,,,0.00,Wunderground v.1.15,2013-06-30 07:52:00,
2013-06-30 01:54:00,67.4,42.2,29.83,East,86,0.0,0.0,40,0.00,,,0.00,Wunderground v.1.15,2013-06-30 07:54:00,
2013-06-30 01:56:00,67.6,42.4,29.83,East,86,0.0,0.0,40,0.00,,,0.00,Wunderground v.1.15,2013-06-30 07:56:00,
2013-06-30 02:01:00,68.3,41.0,29.82,ESE,107,1.0,1.0,37,0.00,,,0.00,Wunderground v.1.15,2013-06-30 08:01:00,
2013-06-30 02:04:00,68.3,40.3,29.82,ESE,109,1.0,1.0,36,0.00,,,0.00,Wunderground v.1.15,2013-06-30 08:04:00,
2013-06-30 02:06:00,68.3,40.3,29.82,ESE,109,1.0,1.0,36,0.00,,,0.00,Wunderground v.1.15,2013-06-30 08:06:00,
2013-06-30 02:08:00,68.1,40.1,29.82,ESE,109,1.0,1.0,36,0.00,,,0.00,Wunderground v.1.15,2013-06-30 08:08:00,
2013-06-30 02:10:00,68.1,39.4,29.82,ESE,110,0.0,1.0,35,0.00,,,0.00,Wunderground v.1.15,2013-06-30 08:10:00,
2013-06-30 02:12:00,68.1,39.4,29.82,ESE,110,0.0,0.0,35,0.00,,,0.00,Wunderground v.1.15,2013-06-30 08:12:00,
2013-06-30 02:14:00,68.1,39.4,29.82,ESE,110,0.0,0.0,35,0.00,,,0.00,Wunderground v.1.15,2013-06-30 08:14:00,
2013-06-30 02:16:00,68.1,39.4,29.81,ESE,110,0.0,0.0,35,0.00,,,0.00,Wunderground v.1.15,2013-06-30 08:16:00,
2013-06-30 02:20:00,67.9,39.9,29.81,ESE,110,0.0,0.0,36,0.00,,,0.00,Wunderground v.1.15,2013-06-30 08:20:00,
2013-06-30 02:22:00,67.8,39.1,29.81,ESE,110,0.0,0.0,35,0.00,,,0.00,Wunderground v.1.15,2013-06-30 08:22:00,
2013-06-30 02:26:00,67.6,39.7,29.81,ESE,110,0.0,0.0,36,0.00,,,0.00,Wunderground v.1.15,2013-06-30 08:26:00,
2013-06-30 02:28:00,67.6,39.7,29.81,ESE,110,0.0,0.0,36,0.00,,,0.00,Wunderground v.1.15,2013-06-30 08:28:00,
2013-06-30 02:31:00,67.8,39.1,29.81,ESE,110,0.0,0.0,35,0.00,,,0.00,Wunderground v.1.15,2013-06-30 08:31:00,
2013-06-30 02:32:00,67.8,39.1,29.81,ESE,110,0.0,0.0,35,0.00,,,0.00,Wunderground v.1.15,2013-06-30 08:32:00,
2013-06-30 02:36:00,67.8,39.1,29.81,ESE,110,0.0,0.0,35,0.00,,,0.00,Wunderground v.1.15,2013-06-30 08:36:00,
2013-06-30 02:38:00,67.6,39.7,29.81,ESE,110,0.0,0.0,36,0.00,,,0.00,Wunderground v.1.15,2013-06-30 08:38:00,
2013-06-30 02:42:00,66.9,39.8,29.81,ESE,110,0.0,0.0,37,0.00,,,0.00,Wunderground v.1.15,2013-06-30 08:42:00,
2013-06-30 02:44:00,66.8,40.4,29.81,ESE,110,0.0,0.0,38,0.00,,,0.00,Wunderground v.1.15,2013-06-30 08:44:00,
2013-06-30 02:48:00,66.3,40.6,29.82,ESE,110,0.0,0.0,39,0.00,,,0.00,Wunderground v.1.15,2013-06-30 08:48:00,
2013-06-30 02:50:00,66.0,40.3,29.82,ESE,110,0.0,0.0,39,0.00,,,0.00,Wunderground v.1.15,2013-06-30 08:50:00,
2013-06-30 02:54:00,65.6,40.0,29.82,ESE,110,0.0,0.0,39,0.00,,,0.00,Wunderground v.1.15,2013-06-30 08:54:00,
2013-06-30 02:56:00,65.5,39.9,29.82,ESE,110,0.0,0.0,39,0.00,,,0.00,Wunderground v.1.15,2013-06-30 08:56:00,
2013-06-30 03:00:00,65.3,39.7,29.83,ESE,110,0.0,1.0,39,0.00,,,0.00,Wunderground v.1.15,2013-06-30 09:00:00,
2013-06-30 03:02:00,65.5,39.9,29.83,SSE,150,0.0,1.0,39,0.00,,,0.00,Wunderground v.1.15,2013-06-30 09:02:00,
2013-06-30 03:04:00,65.6,40.0,29.83,SSE,150,0.0,1.0,39,0.00,,,0.00,Wunderground v.1.15,2013-06-30 09:04:00,
2013-06-30 03:10:00,66.8,42.3,29.83,ESE,123,1.0,4.0,41,0.00,,,0.00,Wunderground v.1.15,2013-06-30 09:10:00,
2013-06-30 03:16:00,69.1,41.7,29.79,ESE,104,2.0,4.0,37,0.00,,,0.00,Wunderground v.1.15,2013-06-30 09:16:00,
2013-06-30 03:18:00,69.4,42.0,29.79,ESE,111,2.0,5.0,37,0.00,,,0.00,Wunderground v.1.15,2013-06-30 09:18:00,
2013-06-30 03:20:00,69.4,42.0,29.79,SSE,150,2.0,2.0,37,0.00,,,0.00,Wunderground v.1.15,2013-06-30 09:20:00,
2013-06-30 03:24:00,70.1,41.9,29.79,ESE,113,2.0,11.0,36,0.00,,,0.00,Wunderground v.1.15,2013-06-30 09:24:00,
2013-06-30 03:26:00,70.3,41.3,29.79,ESE,108,3.0,11.0,35,0.00,,,0.00,Wunderground v.1.15,2013-06-30 09:26:00,
2013-06-30 03:28:00,70.4,41.4,29.79,SE,141,2.0,11.0,35,0.00,,,0.00,Wunderground v.1.15,2013-06-30 09:28:00,
2013-06-30 03:32:00,70.3,41.3,29.78,SSE,165,2.0,3.0,35,0.00,,,0.00,Wunderground v.1.15,2013-06-30 09:32:00,
2013-06-30 03:36:00,69.9,41.0,29.78,SSE,160,1.0,3.0,35,0.00,,,0.00,Wunderground v.1.15,2013-06-30 09:36:00,
2013-06-30 03:38:00,69.4,40.5,29.78,SSE,162,1.0,3.0,35,0.00,,,0.00,Wunderground v.1.15,2013-06-30 09:38:00,
2013-06-30 03:42:00,68.4,39.7,29.78,SSE,162,1.0,1.0,35,0.00,,,0.00,Wunderground v.1.15,2013-06-30 09:42:00,
2013-06-30 03:48:00,66.9,39.1,29.81,SSE,162,0.0,1.0,36,0.00,,,0.00,Wunderground v.1.15,2013-06-30 09:48:00,
2013-06-30 03:52:00,66.1,39.7,29.81,SSE,162,0.0,0.0,38,0.00,,,0.00,Wunderground v.1.15,2013-06-30 09:52:00,
2013-06-30 03:54:00,66.1,40.4,29.81,SE,141,0.0,2.0,39,0.00,,,0.00,Wunderground v.1.15,2013-06-30 09:54:00,
2013-06-30 03:58:00,66.6,40.9,29.81,SE,135,0.0,3.0,39,0.00,,,0.00,Wunderground v.1.15,2013-06-30 09:58:00,
2013-06-30 04:00:00,66.9,41.1,29.81,SE,135,0.0,0.0,39,0.00,,,0.00,Wunderground v.1.15,2013-06-30 10:00:00,
2013-06-30 04:04:00,67.1,42.0,29.80,SE,135,0.0,0.0,40,0.00,,,0.00,Wunderground v.1.15,2013-06-30 10:04:00,
2013-06-30 04:06:00,67.3,41.5,29.80,ESE,111,0.0,0.0,39,0.00,,,0.00,Wunderground v.1.15,2013-06-30 10:06:00,
2013-06-30 04:08:00,67.4,41.6,29.80,ESE,111,0.0,0.0,39,0.00,,,0.00,Wunderground v.1.15,2013-06-30 10:08:00,
2013-06-30 04:10:00,67.4,41.6,29.80,ESE,111,0.0,0.0,39,0.00,,,0.00,Wunderground v.1.15,2013-06-30 10:10:00,
2013-06-30 04:12:00,67.3,42.1,29.80,ESE,111,0.0,0.0,40,0.00,,,0.00,Wunderground v.1.15,2013-06-30 10:12:00,
2013-06-30 04:16:00,67.3,41.5,29.80,ESE,111,0.0,0.0,39,0.00,,,0.00,Wunderground v.1.15,2013-06-30 10:16:00,
2013-06-30 04:18:00,67.1,41.3,29.80,ESE,111,0.0,2.0,39,0.00,,,0.00,Wunderground v.1.15,2013-06-30 10:18:00,
2013-06-30 04:20:00,66.9,40.5,29.80,SSE,157,0.0,2.0,38,0.00,,,0.00,Wunderground v.1.15,2013-06-30 10:20:00,
2013-06-30 04:22:00,66.8,41.0,29.80,SSE,157,1.0,2.0,39,0.00,,,0.00,Wunderground v.1.15,2013-06-30 10:22:00,
2013-06-30 04:26:00,66.3,41.2,29.80,SSE,157,1.0,2.0,40,0.00,,,0.00,Wunderground v.1.15,2013-06-30 10:26:00,
2013-06-30 04:32:00,65.5,40.5,29.81,SSE,157,0.0,1.0,40,0.00,,,0.00,Wunderground v.1.15,2013-06-30 10:32:00,
2013-06-30 04:34:00,65.3,40.3,29.81,SSE,157,0.0,1.0,40,0.00,,,0.00,Wunderground v.1.15,2013-06-30 10:34:00,
2013-06-30 04:36:00,65.2,40.3,29.81,SSE,157,0.0,1.0,40,0.00,,,0.00,Wunderground v.1.15,2013-06-30 10:36:00,
2013-06-30 04:40:00,64.7,40.4,29.81,SSE,157,0.0,0.0,41,0.00,,,0.00,Wunderground v.1.15,2013-06-30 10:40:00,
2013-06-30 04:44:00,64.3,40.1,29.81,SSE,157,0.0,0.0,41,0.00,,,0.00,Wunderground v.1.15,2013-06-30 10:44:00,
2013-06-30 04:46:00,64.3,40.1,29.83,SSE,157,0.0,0.0,41,0.00,,,0.00,Wunderground v.1.15,2013-06-30 10:46:00,
2013-06-30 04:50:00,64.0,40.4,29.83,SSE,157,0.0,0.0,42,0.00,,,0.00,Wunderground v.1.15,2013-06-30 10:50:00,
2013-06-30 04:54:00,64.0,39.8,29.83,SSE,157,0.0,0.0,41,0.00,,,0.00,Wunderground v.1.15,2013-06-30 10:54:00,
2013-06-30 04:56:00,64.0,39.8,29.83,SSE,157,0.0,0.0,41,0.00,,,0.00,Wunderground v.1.15,2013-06-30 10:56:00,
2013-06-30 05:00:00,63.9,40.3,29.83,SSE,157,0.0,0.0,42,0.00,,,0.00,Wunderground v.1.15,2013-06-30 11:00:00,
2013-06-30 05:02:00,63.7,39.5,29.83,SSE,157,0.0,0.0,41,0.00,,,0.00,Wunderground v.1.15,2013-06-30 11:02:00,
2013-06-30 05:04:00,63.7,39.5,29.83,SSE,157,0.0,0.0,41,0.00,,,0.00,Wunderground v.1.15,2013-06-30 11:04:00,
2013-06-30 05:08:00,63.9,39.7,29.83,SSE,157,0.0,0.0,41,0.00,,,0.00,Wunderground v.1.15,2013-06-30 11:08:00,
2013-06-30 05:10:00,64.0,39.8,29.83,SE,146,0.0,0.0,41,0.00,,,0.00,Wunderground v.1.15,2013-06-30 11:10:00,
2013-06-30 05:16:00,64.5,39.6,29.83,SE,146,0.0,1.0,40,0.00,,,0.00,Wunderground v.1.15,2013-06-30 11:16:00,
2013-06-30 05:18:00,64.5,39.6,29.83,ESE,119,0.0,1.0,40,0.00,,,0.00,Wunderground v.1.15,2013-06-30 11:18:00,
2013-06-30 05:20:00,64.7,39.8,29.83,ESE,115,0.0,2.0,40,0.00,,,0.00,Wunderground v.1.15,2013-06-30 11:20:00,
2013-06-30 05:22:00,64.8,39.2,29.83,SE,146,0.0,2.0,39,0.00,,,0.00,Wunderground v.1.15,2013-06-30 11:22:00,
2013-06-30 05:26:00,65.0,39.4,29.83,SE,146,0.0,2.0,39,0.00,,,0.00,Wunderground v.1.15,2013-06-30 11:26:00,
2013-06-30 05:28:00,65.0,39.4,29.83,SE,146,0.0,2.0,39,0.00,,,0.00,Wunderground v.1.15,2013-06-30 11:28:00,
2013-06-30 05:34:00,64.5,39.6,29.83,SE,146,0.0,0.0,40,0.00,,,0.00,Wunderground v.1.15,2013-06-30 11:34:00,
2013-06-30 05:36:00,64.5,39.6,29.83,SE,144,0.0,0.0,40,0.00,,,0.00,Wunderground v.1.15,2013-06-30 11:36:00,
2013-06-30 05:38:00,64.5,39.0,29.83,SE,143,0.0,0.0,39,0.00,,,0.00,Wunderground v.1.15,2013-06-30 11:38:00,
2013-06-30 05:42:00,64.3,38.8,29.83,SE,144,0.0,0.0,39,0.00,,,0.00,Wunderground v.1.15,2013-06-30 11:42:00,
2013-06-30 05:46:00,64.2,39.4,29.85,SE,144,0.0,0.0,40,0.00,,,0.00,Wunderground v.1.15,2013-06-30 11:46:00,
2013-06-30 05:48:00,64.0,39.2,29.85,SE,143,0.0,0.0,40,0.00,,,0.00,Wunderground v.1.15,2013-06-30 11:48:00,
2013-06-30 05:54:00,63.5,40.6,29.85,SE,144,0.0,0.0,43,0.00,,,0.00,Wunderground v.1.15,2013-06-30 11:54:00,
2013-06-30 05:56:00,63.4,41.1,29.85,SE,144,0.0,0.0,44,0.00,,,0.00,Wunderground v.1.15,2013-06-30 11:56:00,
2013-06-30 05:58:00,63.1,40.8,29.85,SE,144,0.0,0.0,44,0.00,,,0.00,Wunderground v.1.15,2013-06-30 11:58:00,
2013-06-30 06:00:00,62.7,40.5,29.85,SE,144,0.0,0.0,44,0.00,,,0.00,Wunderground v.1.15,2013-06-30 12:00:00,
2013-06-30 06:02:00,62.6,41.5,29.86,SE,144,0.0,0.0,46,0.00,,,0.00,Wunderground v.1.15,2013-06-30 12:02:00,
2013-06-30 06:06:00,62.4,40.8,29.86,SE,144,0.0,0.0,45,0.00,,,0.00,Wunderground v.1.15,2013-06-30 12:06:00,
2013-06-30 06:08:00,62.4,40.2,29.86,SE,143,0.0,0.0,44,0.00,,,0.00,Wunderground v.1.15,2013-06-30 12:08:00,
2013-06-30 06:10:00,62.6,41.5,29.86,SE,144,0.0,0.0,46,0.00,,,0.00,Wunderground v.1.15,2013-06-30 12:10:00,
2013-06-30 06:12:00,62.7,41.0,29.86,SE,144,0.0,0.0,45,0.00,,,0.00,Wunderground v.1.15,2013-06-30 12:12:00,
2013-06-30 06:16:00,62.9,40.0,29.88,SE,144,0.0,0.0,43,0.00,,,0.00,Wunderground v.1.15,2013-06-30 12:16:00,
2013-06-30 06:18:00,62.9,40.6,29.88,SE,144,0.0,0.0,44,0.00,,,0.00,Wunderground v.1.15,2013-06-30 12:18:00,
2013-06-30 06:20:00,62.9,40.6,29.88,SE,144,0.0,0.0,44,0.00,,,0.00,Wunderground v.1.15,2013-06-30 12:20:00,
2013-06-30 06:22:00,62.9,41.2,29.88,SE,144,0.0,0.0,45,0.00,,,0.00,Wunderground v.1.15,2013-06-30 12:22:00,
2013-06-30 06:24:00,62.7,40.5,29.88,SE,143,0.0,0.0,44,0.00,,,0.00,Wunderground v.1.15,2013-06-30 12:24:00,
2013-06-30 06:26:00,62.7,42.2,29.88,SE,144,0.0,0.0,47,0.00,,,0.00,Wunderground v.1.15,2013-06-30 12:26:00,
2013-06-30 06:28:00,62.7,42.2,29.88,SE,144,0.0,1.0,47,0.00,,,0.00,Wunderground v.1.15,2013-06-30 12:28:00,
2013-06-30 06:30:00,62.6,42.1,29.88,SE,144,0.0,0.0,47,0.00,,,0.00,Wunderground v.1.15,2013-06-30 12:30:00,
2013-06-30 06:32:00,62.4,42.4,29.90,SE,144,0.0,0.0,48,0.00,,,0.00,Wunderground v.1.15,2013-06-30 12:32:00,
2013-06-30 06:36:00,62.4,41.3,29.90,SE,144,0.0,0.0,46,0.00,,,0.00,Wunderground v.1.15,2013-06-30 12:36:00,
2013-06-30 06:38:00,62.4,40.8,29.90,SE,143,0.0,0.0,45,0.00,,,0.00,Wunderground v.1.15,2013-06-30 12:38:00,
2013-06-30 06:40:00,62.6,41.5,29.90,SE,144,0.0,0.0,46,0.00,,,0.00,Wunderground v.1.15,2013-06-30 12:40:00,
2013-06-30 06:42:00,62.6,42.1,29.90,SE,144,0.0,0.0,47,0.00,,,0.00,Wunderground v.1.15,2013-06-30 12:42:00,
2013-06-30 06:44:00,62.7,41.6,29.90,SE,144,0.0,0.0,46,0.00,,,0.00,Wunderground v.1.15,2013-06-30 12:44:00,
2013-06-30 06:48:00,62.9,41.8,29.90,SE,143,0.0,0.0,46,0.00,,,0.00,Wunderground v.1.15,2013-06-30 12:48:00,
2013-06-30 06:52:00,63.2,42.1,29.90,SE,143,0.0,0.0,46,0.00,,,0.00,Wunderground v.1.15,2013-06-30 12:52:00,
2013-06-30 06:54:00,63.4,40.5,29.90,SE,144,0.0,0.0,43,0.00,,,0.00,Wunderground v.1.15,2013-06-30 12:54:00,
2013-06-30 07:00:00,64.3,42.5,29.90,SE,144,0.0,0.0,45,0.00,,,0.00,Wunderground v.1.15,2013-06-30 13:00:00,
2013-06-30 07:02:00,64.7,42.9,29.89,SE,143,0.0,0.0,45,0.00,,,0.00,Wunderground v.1.15,2013-06-30 13:02:00,
2013-06-30 07:06:00,65.0,43.7,29.89,SE,143,0.0,0.0,46,0.00,,,0.00,Wunderground v.1.15,2013-06-30 13:06:00,
2013-06-30 07:08:00,65.3,42.2,29.89,SE,144,0.0,0.0,43,0.00,,,0.00,Wunderground v.1.15,2013-06-30 13:08:00,
2013-06-30 07:12:00,65.5,41.8,29.89,SE,143,0.0,1.0,42,0.00,,,0.00,Wunderground v.1.15,2013-06-30 13:12:00,
2013-06-30 07:16:00,65.6,41.9,29.90,SE,144,0.0,1.0,42,0.00,,,0.00,Wunderground v.1.15,2013-06-30 13:16:00,
2013-06-30 07:18:00,65.8,42.1,29.90,SE,143,1.0,1.0,42,0.00,,,0.00,Wunderground v.1.15,2013-06-30 13:18:00,
2013-06-30 07:22:00,66.1,41.7,29.90,SE,144,1.0,1.0,41,0.00,,,0.00,Wunderground v.1.15,2013-06-30 13:22:00,
2013-06-30 07:26:00,66.3,43.1,29.90,SE,144,1.0,1.0,43,0.00,,,0.00,Wunderground v.1.15,2013-06-30 13:26:00,
2013-06-30 07:28:00,66.3,42.5,29.90,SE,143,1.0,2.0,42,0.00,,,0.00,Wunderground v.1.15,2013-06-30 13:28:00,
2013-06-30 07:30:00,66.3,41.9,29.90,SE,143,1.0,2.0,41,0.00,,,0.00,Wunderground v.1.15,2013-06-30 13:30:00,
2013-06-30 07:32:00,66.3,43.1,29.91,SE,144,1.0,2.0,43,0.00,,,0.00,Wunderground v.1.15,2013-06-30 13:32:00,
2013-06-30 07:34:00,66.4,42.6,29.91,SE,144,1.0,2.0,42,0.00,,,0.00,Wunderground v.1.15,2013-06-30 13:34:00,
2013-06-30 07:40:00,66.9,43.0,29.91,SE,144,1.0,1.0,42,0.00,,,0.00,Wunderground v.1.15,2013-06-30 13:40:00,
2013-06-30 07:46:00,67.6,44.3,29.91,SE,144,1.0,1.0,43,0.00,,,0.00,Wunderground v.1.15,2013-06-30 13:46:00,
2013-06-30 07:48:00,67.8,43.2,29.91,SE,143,1.0,1.0,41,0.00,,,0.00,Wunderground v.1.15,2013-06-30 13:48:00,
2013-06-30 07:50:00,67.8,41.3,29.91,SE,144,1.0,2.0,38,0.00,,,0.00,Wunderground v.1.15,2013-06-30 13:50:00,
2013-06-30 07:52:00,68.1,42.2,29.91,SE,144,1.0,2.0,39,0.00,,,0.00,Wunderground v.1.15,2013-06-30 13:52:00,
2013-06-30 07:54:00,68.6,41.3,29.91,SE,144,0.0,2.0,37,0.00,,,0.00,Wunderground v.1.15,2013-06-30 13:54:00,
2013-06-30 07:56:00,68.8,40.0,29.91,SE,144,0.0,2.0,35,0.00,,,0.00,Wunderground v.1.15,2013-06-30 13:56:00,
2013-06-30 08:00:00,69.4,40.5,29.91,SE,143,1.0,1.0,35,0.00,,,0.00,Wunderground v.1.15,2013-06-30 14:00:00,
2013-06-30 08:02:00,69.8,40.9,29.88,SE,144,1.0,1.0,35,0.00,,,0.00,Wunderground v.1.15,2013-06-30 14:02:00,
2013-06-30 08:04:00,69.9,41.0,29.88,SE,144,1.0,1.0,35,0.00,,,0.00,Wunderground v.1.15,2013-06-30 14:04:00,
2013-06-30 08:10:00,70.8,41.0,29.88,SE,143,1.0,1.0,34,0.00,,,0.00,Wunderground v.1.15,2013-06-30 14:10:00,
2013-06-30 08:12:00,70.9,39.6,29.88,SE,143,1.0,2.0,32,0.00,,,0.00,Wunderground v.1.15,2013-06-30 14:12:00,
2013-06-30 08:16:00,71.5,41.6,29.89,SE,144,1.0,2.0,34,0.00,,,0.00,Wunderground v.1.15,2013-06-30 14:16:00,
2013-06-30 08:18:00,72.0,40.5,29.89,NE,34,1.0,2.0,32,0.00,,,0.00,Wunderground v.1.15,2013-06-30 14:18:00,
2013-06-30 08:22:00,73.2,39.9,29.89,NNW,338,1.0,1.0,30,0.00,,,0.00,Wunderground v.1.15,2013-06-30 14:22:00,
2013-06-30 08:24:00,73.7,40.3,29.89,NNW,338,0.0,1.0,30,0.00,,,0.00,Wunderground v.1.15,2013-06-30 14:24:00,
2013-06-30 08:30:00,75.1,38.8,29.89,NNW,338,0.0,0.0,27,0.00,,,0.00,Wunderground v.1.15,2013-06-30 14:30:00,
2013-06-30 08:32:00,75.3,39.0,29.88,NNW,338,0.0,0.0,27,0.00,,,0.00,Wunderground v.1.15,2013-06-30 14:32:00,
2013-06-30 08:34:00,75.6,40.2,29.88,NNW,338,0.0,0.0,28,0.00,,,0.00,Wunderground v.1.15,2013-06-30 14:34:00,
2013-06-30 08:38:00,75.8,39.4,29.88,NNW,338,0.0,0.0,27,0.00,,,0.00,Wunderground v.1.15,2013-06-30 14:38:00,
2013-06-30 08:40:00,75.8,40.4,29.88,NNW,338,0.0,0.0,28,0.00,,,0.00,Wunderground v.1.15,2013-06-30 14:40:00,
2013-06-30 08:42:00,75.8,40.4,29.88,NNW,338,0.0,0.0,28,0.00,,,0.00,Wunderground v.1.15,2013-06-30 14:42:00,
2013-06-30 08:46:00,76.0,38.6,29.86,NNW,338,0.0,0.0,26,0.00,,,0.00,Wunderground v.1.15,2013-06-30 14:46:00,
2013-06-30 08:48:00,76.0,39.6,29.86,NNW,338,0.0,0.0,27,0.00,,,0.00,Wunderground v.1.15,2013-06-30 14:48:00,
2013-06-30 08:50:00,76.0,40.5,29.86,NNW,338,0.0,0.0,28,0.00,,,0.00,Wunderground v.1.15,2013-06-30 14:50:00,
2013-06-30 08:54:00,75.8,38.5,29.86,NNW,338,0.0,0.0,26,0.00,,,0.00,Wunderground v.1.15,2013-06-30 14:54:00,
2013-06-30 08:56:00,76.0,39.6,29.86,NNW,338,0.0,2.0,27,0.00,,,0.00,Wunderground v.1.15,2013-06-30 14:56:00,
2013-06-30 09:00:00,76.7,39.2,29.86,NNW,338,1.0,2.0,26,0.00,,,0.00,Wunderground v.1.15,2013-06-30 15:00:00,
2013-06-30 09:02:00,76.8,39.3,29.87,NNW,338,1.0,2.0,26,0.00,,,0.00,Wunderground v.1.15,2013-06-30 15:02:00,
2013-06-30 09:04:00,77.2,41.6,29.87,NNW,338,1.0,2.0,28,0.00,,,0.00,Wunderground v.1.15,2013-06-30 15:04:00,
2013-06-30 09:06:00,77.2,40.6,29.87,NNW,338,1.0,2.0,27,0.00,,,0.00,Wunderground v.1.15,2013-06-30 15:06:00,
2013-06-30 09:10:00,77.6,41.9,29.87,NNW,338,1.0,2.0,28,0.00,,,0.00,Wunderground v.1.15,2013-06-30 15:10:00,
2013-06-30 09:14:00,77.6,41.9,29.87,NNW,338,1.0,2.0,28,0.00,,,0.00,Wunderground v.1.15,2013-06-30 15:14:00,
2013-06-30 09:16:00,77.6,41.9,29.86,NNW,338,2.0,2.0,28,0.00,,,0.00,Wunderground v.1.15,2013-06-30 15:16:00,
2013-06-30 09:20:00,77.4,40.8,29.86,NNW,338,1.0,1.0,27,0.00,,,0.00,Wunderground v.1.15,2013-06-30 15:20:00,
2013-06-30 09:22:00,77.6,41.0,29.86,NNW,338,1.0,1.0,27,0.00,,,0.00,Wunderground v.1.15,2013-06-30 15:22:00,
2013-06-30 09:24:00,77.7,41.0,29.86,NNW,338,1.0,1.0,27,0.00,,,0.00,Wunderground v.1.15,2013-06-30 15:24:00,
2013-06-30 09:28:00,78.3,41.6,29.86,NNW,338,0.0,1.0,27,0.00,,,0.00,Wunderground v.1.15,2013-06-30 15:28:00,
2013-06-30 09:30:00,78.5,42.7,29.86,NNW,338,0.0,0.0,28,0.00,,,0.00,Wunderground v.1.15,2013-06-30 15:30:00,
2013-06-30 09:32:00,78.6,40.8,29.86,NNW,338,0.0,0.0,26,0.00,,,0.00,Wunderground v.1.15,2013-06-30 15:32:00,
2013-06-30 09:34:00,78.8,40.0,29.86,NNW,338,0.0,0.0,25,0.00,,,0.00,Wunderground v.1.15,2013-06-30 15:34:00,
2013-06-30 09:36:00,79.2,41.3,29.86,NNW,338,0.0,0.0,26,0.00,,,0.00,Wunderground v.1.15,2013-06-30 15:36:00,
2013-06-30 09:38:00,79.6,40.7,29.86,NNW,338,0.0,0.0,25,0.00,,,0.00,Wunderground v.1.15,2013-06-30 15:38:00,
2013-06-30 09:40:00,80.1,43.1,29.86,NNW,338,0.0,2.0,27,0.00,,,0.00,Wunderground v.1.15,2013-06-30 15:40:00,
2013-06-30 09:42:00,80.3,42.3,29.86,NNW,338,0.0,2.0,26,0.00,,,0.00,Wunderground v.1.15,2013-06-30 15:42:00,
2013-06-30 09:44:00,80.7,42.6,29.86,NNW,338,0.0,2.0,26,0.00,,,0.00,Wunderground v.1.15,2013-06-30 15:44:00,
2013-06-30 09:46:00,80.9,40.7,29.85,NNW,338,0.0,2.0,24,0.00,,,0.00,Wunderground v.1.15,2013-06-30 15:46:00,
2013-06-30 09:50:00,81.1,38.6,29.85,NNW,338,0.0,0.0,22,0.00,,,0.00,Wunderground v.1.15,2013-06-30 15:50:00,
2013-06-30 09:52:00,81.2,41.0,29.85,NNW,338,0.0,0.0,24,0.00,,,0.00,Wunderground v.1.15,2013-06-30 15:52:00,
2013-06-30 09:56:00,81.1,39.8,29.85,NNW,338,1.0,1.0,23,0.00,,,0.00,Wunderground v.1.15,2013-06-30 15:56:00,
2013-06-30 09:58:00,81.1,39.8,29.85,NNW,338,1.0,2.0,23,0.00,,,0.00,Wunderground v.1.15,2013-06-30 15:58:00,
2013-06-30 10:00:00,81.2,41.0,29.85,NNW,338,1.0,1.0,24,0.00,,,0.00,Wunderground v.1.15,2013-06-30 16:00:00,
2013-06-30 10:04:00,81.8,41.5,29.84,NNW,338,1.0,1.0,24,0.00,,,0.00,Wunderground v.1.15,2013-06-30 16:04:00,
2013-06-30 10:06:00,81.8,40.4,29.84,WSW,258,1.0,1.0,23,0.00,,,0.00,Wunderground v.1.15,2013-06-30 16:06:00,
2013-06-30 10:08:00,81.8,42.5,29.84,WSW,258,0.0,2.0,25,0.00,,,0.00,Wunderground v.1.15,2013-06-30 16:08:00,
2013-06-30 10:10:00,81.8,41.5,29.84,WSW,257,0.0,3.0,24,0.00,,,0.00,Wunderground v.1.15,2013-06-30 16:10:00,
2013-06-30 10:12:00,81.8,40.4,29.84,WSW,257,1.0,3.0,23,0.00,,,0.00,Wunderground v.1.15,2013-06-30 16:12:00,
2013-06-30 10:14:00,81.6,42.4,29.84,WSW,257,1.0,3.0,25,0.00,,,0.00,Wunderground v.1.15,2013-06-30 16:14:00,
2013-06-30 10:18:00,82.0,42.7,29.84,WSW,257,1.0,3.0,25,0.00,,,0.00,Wunderground v.1.15,2013-06-30 16:18:00,
2013-06-30 10:20:00,82.0,41.6,29.84,WSW,257,1.0,2.0,24,0.00,,,0.00,Wunderground v.1.15,2013-06-30 16:20:00,
2013-06-30 10:24:00,82.0,41.6,29.84,WSW,258,1.0,3.0,24,0.00,,,0.00,Wunderground v.1.15,2013-06-30 16:24:00,
2013-06-30 10:26:00,82.2,42.9,29.84,WSW,258,1.0,3.0,25,0.00,,,0.00,Wunderground v.1.15,2013-06-30 16:26:00,
2013-06-30 10:28:00,82.6,39.9,29.84,WSW,258,1.0,3.0,22,0.00,,,0.00,Wunderground v.1.15,2013-06-30 16:28:00,
2013-06-30 10:31:00,83.0,41.4,29.83,WSW,257,1.0,1.0,23,0.00,,,0.00,Wunderground v.1.15,2013-06-30 16:31:00,
2013-06-30 10:34:00,83.6,41.9,29.83,WSW,257,1.0,1.0,23,0.00,,,0.00,Wunderground v.1.15,2013-06-30 16:34:00,
2013-06-30 10:36:00,84.0,43.3,29.83,WSW,257,1.0,1.0,24,0.00,,,0.00,Wunderground v.1.15,2013-06-30 16:36:00,
2013-06-30 10:40:00,84.3,40.1,29.83,WSW,257,1.0,1.0,21,0.00,,,0.00,Wunderground v.1.15,2013-06-30 16:40:00,
2013-06-30 10:42:00,84.5,42.6,29.83,WSW,258,1.0,1.0,23,0.00,,,0.00,Wunderground v.1.15,2013-06-30 16:42:00,
2013-06-30 10:44:00,84.7,42.8,29.83,WSW,257,0.0,1.0,23,0.00,,,0.00,Wunderground v.1.15,2013-06-30 16:44:00,
2013-06-30 10:48:00,84.9,40.6,29.82,WSW,258,1.0,3.0,21,0.00,,,0.00,Wunderground v.1.15,2013-06-30 16:48:00,
2013-06-30 23:49:00,77.2,37.6,29.79,ESE,113,7.0,-999.0,24,0.00,,,0.01,Wunderground v.1.15,2013-07-01 05:49:00,
2013-06-30 23:54:00,77.2,37.6,29.79,ESE,113,7.0,-999.0,24,0.00,,,0.01,Wunderground v.1.15,2013-07-01 05:54:00,
2013-06-30 23:59:00,76.3,38.9,29.80,ESE,113,6.0,-999.0,26,0.00,,,0.01,Wunderground v.1.15,2013-07-01 05:59:00,